Time,TemperatureF,DewpointF,PressureIn,WindDirection,WindDirectionDegrees,WindSpeedMPH,WindSpeedGustMPH,Humidity,HourlyPrecipIn,Conditions,Clouds,dailyrainin,SoftwareType,DateUTC
2013-04-18 00:02:00,67.0,66.0,30.16,NNE,23,0.0,-999.0,97,-99.99,,,-99.99,,2013-04-18 10:02:00,
2013-04-18 00:12:00,67.0,66.0,30.16,NNE,23,0.0,-999.0,97,-99.99,,,-99.99,,2013-04-18 10:12:00,
2013-04-18 00:22:00,67.0,66.0,30.16,North,10,0.0,-999.0,97,-99.99,,,-99.99,,2013-04-18 10:22:00,
2013-04-18 00:32:00,67.0,66.0,30.16,North,10,0.0,-999.0,97,-99.99,,,-99.99,,2013-04-18 10:32:00,
2013-04-18 00:42:00,67.0,66.0,30.16,North,10,0.0,-999.0,97,-99.99,,,-99.99,,2013-04-18 10:42:00,
2013-04-18 00:52:00,66.0,65.0,30.15,North,10,0.0,-999.0,97,-99.99,,,-99.99,,2013-04-18 10:52:00,
2013-04-18 01:02:00,66.0,65.0,30.14,North,10,0.0,-999.0,97,-99.99,,,-99.99,,2013-04-18 11:02:00,
2013-04-18 01:12:00,66.0,65.0,30.14,North,10,0.0,-999.0,97,-99.99,,,-99.99,,2013-04-18 11:12:00,
2013-04-18 01:21:00,66.0,65.0,30.14,North,10,0.0,-999.0,97,-99.99,,,-99.99,,2013-04-18 11:21:00,
2013-04-18 01:32:00,65.0,64.0,30.13,North,10,0.0,-999.0,97,-99.99,,,-99.99,,2013-04-18 11:32:00,
2013-04-18 01:42:00,65.0,64.0,30.13,North,10,0.0,-999.0,97,-99.99,,,-99.99,,2013-04-18 11:42:00,
2013-04-18 01:52:00,65.0,64.0,30.13,North,10,0.0,-999.0,97,-99.99,,,-99.99,,2013-04-18 11:52:00,
2013-04-18 02:02:00,66.0,65.0,30.13,North,10,0.0,-999.0,98,-99.99,,,-99.99,,2013-04-18 12:02:00,
2013-04-18 02:12:00,66.0,65.0,30.13,North,10,0.0,-999.0,98,-99.99,,,-99.99,,2013-04-18 12:12:00,
2013-04-18 02:22:00,66.0,65.0,30.13,North,10,0.0,-999.0,98,-99.99,,,-99.99,,2013-04-18 12:22:00,
2013-04-18 02:32:00,65.0,64.0,30.12,North,10,0.0,-999.0,97,-99.99,,,-99.99,,2013-04-18 12:32:00,
2013-04-18 02:42:00,65.0,64.0,30.12,North,10,0.0,-999.0,97,-99.99,,,-99.99,,2013-04-18 12:42:00,
2013-04-18 02:52:00,65.0,64.0,30.12,North,10,0.0,-999.0,97,-99.99,,,-99.99,,2013-04-18 12:52:00,
2013-04-18 03:02:00,64.0,63.0,30.11,North,10,0.0,-999.0,97,-99.99,,,-99.99,,2013-04-18 13:02:00,
2013-04-18 03:12:00,64.0,63.0,30.11,North,10,0.0,-999.0,97,-99.99,,,-99.99,,2013-04-18 13:12:00,
2013-04-18 03:22:00,64.0,63.0,30.11,North,10,0.0,-999.0,98,-99.99,,,-99.99,,2013-04-18 13:22:00,
2013-04-18 03:32:00,64.0,63.0,30.11,North,10,0.0,-999.0,98,-99.99,,,-99.99,,2013-04-18 13:32:00,
2013-04-18 03:42:00,64.0,63.0,30.11,North,10,0.0,-999.0,98,-99.99,,,-99.99,,2013-04-18 13:42:00,
2013-04-18 03:52:00,64.0,63.0,30.11,North,10,0.0,-999.0,98,-99.99,,,-99.99,,2013-04-18 13:52:00,
2013-04-18 04:02:00,64.0,63.0,30.10,North,10,0.0,-999.0,98,-99.99,,,-99.99,,2013-04-18 14:02:00,
2013-04-18 04:12:00,64.0,63.0,30.10,North,10,0.0,-999.0,98,-99.99,,,-99.99,,2013-04-18 14:12:00,
2013-04-18 04:22:00,64.0,63.0,30.10,North,10,0.0,-999.0,98,-99.99,,,-99.99,,2013-04-18 14:22:00,
2013-04-18 04:32:00,63.0,62.0,30.10,North,10,0.0,-999.0,98,-99.99,,,-99.99,,2013-04-18 14:32:00,
2013-04-18 04:42:00,63.0,62.0,30.10,North,10,0.0,-999.0,98,-99.99,,,-99.99,,2013-04-18 14:42:00,
2013-04-18 04:52:00,64.0,63.0,30.11,North,10,0.0,-999.0,98,-99.99,,,-99.99,,2013-04-18 14:52:00,
2013-04-18 05:02:00,64.0,63.0,30.11,North,10,0.0,-999.0,98,-99.99,,,-99.99,,2013-04-18 15:02:00,
2013-04-18 05:12:00,64.0,63.0,30.11,North,10,0.0,-999.0,98,-99.99,,,-99.99,,2013-04-18 15:12:00,
2013-04-18 05:22:00,64.0,63.0,30.11,North,10,0.0,-999.0,98,-99.99,,,-99.99,,2013-04-18 15:22:00,
2013-04-18 05:33:00,64.0,63.0,30.12,North,10,0.0,-999.0,98,-99.99,,,-99.99,,2013-04-18 15:33:00,
2013-04-18 05:42:00,64.0,63.0,30.11,North,10,0.0,-999.0,98,-99.99,,,-99.99,,2013-04-18 15:42:00,
2013-04-18 05:52:00,64.0,63.0,30.11,North,10,0.0,-999.0,98,-99.99,,,-99.99,,2013-04-18 15:52:00,
2013-04-18 06:03:00,64.0,63.0,30.12,North,10,0.0,-999.0,98,-99.99,,,-99.99,,2013-04-18 16:03:00,
2013-04-18 06:13:00,64.0,63.0,30.12,North,10,0.0,-999.0,98,-99.99,,,-99.99,,2013-04-18 16:13:00,
2013-04-18 06:22:00,64.0,63.0,30.12,North,10,0.0,-999.0,98,-99.99,,,-99.99,,2013-04-18 16:22:00,
2013-04-18 06:33:00,64.0,63.0,30.12,North,10,0.0,-999.0,98,-99.99,,,-99.99,,2013-04-18 16:33:00,
2013-04-18 06:42:00,64.0,63.0,30.13,North,10,0.0,-999.0,98,-99.99,,,-99.99,,2013-04-18 16:42:00,
2013-04-18 06:52:00,64.0,63.0,30.13,North,10,0.0,-999.0,98,-99.99,,,-99.99,,2013-04-18 16:52:00,
2013-04-18 07:02:00,65.0,64.0,30.14,North,10,0.0,-999.0,98,-99.99,,,-99.99,,2013-04-18 17:02:00,
2013-04-18 07:12:00,66.0,65.0,30.14,North,10,0.0,-999.0,98,-99.99,,,-99.99,,2013-04-18 17:12:00,
2013-04-18 07:22:00,66.0,65.0,30.14,North,10,0.0,-999.0,98,-99.99,,,-99.99,,2013-04-18 17:22:00,
2013-04-18 07:33:00,67.0,67.0,30.15,North,10,0.0,-999.0,99,-99.99,,,-99.99,,2013-04-18 17:33:00,
2013-04-18 07:42:00,67.0,66.0,30.15,North,10,0.0,-999.0,98,-99.99,,,-99.99,,2013-04-18 17:42:00,
2013-04-18 07:52:00,67.0,66.0,30.15,North,10,0.0,-999.0,98,-99.99,,,-99.99,,2013-04-18 17:52:00,
2013-04-18 08:02:00,67.0,67.0,30.16,North,10,0.0,-999.0,99,-99.99,,,-99.99,,2013-04-18 18:02:00,
2013-04-18 08:12:00,67.0,66.0,30.16,North,10,0.0,-999.0,98,-99.99,,,-99.99,,2013-04-18 18:12:00,
2013-04-18 08:22:00,67.0,66.0,30.16,North,10,0.0,-999.0,98,-99.99,,,-99.99,,2013-04-18 18:22:00,
2013-04-18 08:32:00,68.0,68.0,30.16,North,10,0.0,-999.0,99,-99.99,,,-99.99,,2013-04-18 18:32:00,
2013-04-18 08:42:00,68.0,68.0,30.16,North,10,0.0,-999.0,99,-99.99,,,-99.99,,2013-04-18 18:42:00,
2013-04-18 08:52:00,68.0,68.0,30.16,North,10,0.0,-999.0,99,-99.99,,,-99.99,,2013-04-18 18:52:00,
2013-04-18 09:02:00,69.0,68.0,30.17,North,10,0.0,-999.0,98,-99.99,,,-99.99,,2013-04-18 19:02:00,
2013-04-18 09:12:00,69.0,68.0,30.17,North,10,0.0,-999.0,98,-99.99,,,-99.99,,2013-04-18 19:12:00,
2013-04-18 09:22:00,70.0,69.0,30.17,North,10,0.0,-999.0,98,-99.99,,,-99.99,,2013-04-18 19:22:00,
2013-04-18 09:32:00,71.0,70.0,30.17,North,10,0.0,-999.0,97,-99.99,,,-99.99,,2013-04-18 19:32:00,
2013-04-18 09:42:00,71.0,70.0,30.17,North,10,0.0,-999.0,97,-99.99,,,-99.99,,2013-04-18 19:42:00,
2013-04-18 09:52:00,73.0,71.0,30.17,North,10,0.0,-999.0,93,-99.99,,,-99.99,,2013-04-18 19:52:00,
2013-04-18 10:02:00,72.0,70.0,30.17,North,10,0.0,-999.0,92,-99.99,,,-99.99,,2013-04-18 20:02:00,
2013-04-18 10:12:00,72.0,70.0,30.17,North,10,0.0,-999.0,92,-99.99,,,-99.99,,2013-04-18 20:12:00,
2013-04-18 10:22:00,73.0,71.0,30.17,North,10,0.0,-999.0,93,-99.99,,,-99.99,,2013-04-18 20:22:00,
2013-04-18 10:32:00,75.0,71.0,30.16,North,10,0.0,-999.0,86,-99.99,,,-99.99,,2013-04-18 20:32:00,
2013-04-18 10:42:00,76.0,69.0,30.16,North,10,0.0,-999.0,80,-99.99,,,-99.99,,2013-04-18 20:42:00,
2013-04-18 10:52:00,76.0,69.0,30.16,North,10,0.0,-999.0,80,-99.99,,,-99.99,,2013-04-18 20:52:00,
2013-04-18 11:02:00,75.0,69.0,30.16,North,11,0.0,-999.0,83,-99.99,,,-99.99,,2013-04-18 21:02:00,
2013-04-18 11:12:00,76.0,70.0,30.16,NNE,22,1.0,-999.0,83,-99.99,,,-99.99,,2013-04-18 21:12:00,
2013-04-18 11:21:00,76.0,70.0,30.16,NNE,22,1.0,-999.0,83,-99.99,,,-99.99,,2013-04-18 21:21:00,
2013-04-18 11:32:00,77.0,69.0,30.15,NNE,32,1.0,-999.0,77,-99.99,,,-99.99,,2013-04-18 21:32:00,
2013-04-18 11:43:00,77.0,70.0,30.15,NNE,32,1.0,-999.0,78,-99.99,,,-99.99,,2013-04-18 21:43:00,
2013-04-18 11:52:00,77.0,70.0,30.15,NNE,32,1.0,-999.0,78,-99.99,,,-99.99,,2013-04-18 21:52:00,
2013-04-18 12:02:00,76.0,69.0,30.15,NNE,17,3.0,-999.0,78,-99.99,,,-99.99,,2013-04-18 22:02:00,
2013-04-18 12:12:00,76.0,69.0,30.14,NE,47,1.0,-999.0,78,-99.99,,,-99.99,,2013-04-18 22:12:00,
2013-04-18 12:22:00,76.0,69.0,30.14,NE,47,1.0,-999.0,78,-99.99,,,-99.99,,2013-04-18 22:22:00,
2013-04-18 12:32:00,77.0,70.0,30.14,NE,42,3.0,-999.0,78,-99.99,,,-99.99,,2013-04-18 22:32:00,
2013-04-18 12:42:00,77.0,69.0,30.14,NE,38,3.0,-999.0,77,-99.99,,,-99.99,,2013-04-18 22:42:00,
2013-04-18 12:52:00,77.0,69.0,30.14,NE,38,3.0,-999.0,77,-99.99,,,-99.99,,2013-04-18 22:52:00,
2013-04-18 13:03:00,76.0,69.0,30.13,NNE,25,4.0,-999.0,79,-99.99,,,-99.99,,2013-04-18 23:03:00,
2013-04-18 13:11:00,78.0,71.0,30.12,ENE,74,3.0,-999.0,78,-99.99,,,-99.99,,2013-04-18 23:11:00,
2013-04-18 13:21:00,78.0,71.0,30.12,ENE,74,3.0,-999.0,78,-99.99,,,-99.99,,2013-04-18 23:21:00,
2013-04-18 13:32:00,77.0,71.0,30.12,East,79,2.0,-999.0,82,-99.99,,,-99.99,,2013-04-18 23:32:00,
2013-04-18 13:42:00,73.0,69.0,30.12,ENE,76,2.0,-999.0,87,-99.99,,,-99.99,,2013-04-18 23:42:00,
2013-04-18 13:52:00,73.0,69.0,30.12,ENE,76,2.0,-999.0,87,-99.99,,,-99.99,,2013-04-18 23:52:00,
2013-04-18 14:01:00,71.0,68.0,30.11,NE,38,1.0,-999.0,91,-99.99,,,-99.99,,2013-04-19 00:01:00,
2013-04-18 14:12:00,71.0,68.0,30.11,NE,38,1.0,-999.0,91,-99.99,,,-99.99,,2013-04-19 00:12:00,
2013-04-18 14:21:00,71.0,69.0,30.11,NNW,347,0.0,-999.0,93,-99.99,,,-99.99,,2013-04-19 00:21:00,
2013-04-18 14:32:00,73.0,70.0,30.10,North,355,1.0,-999.0,90,-99.99,,,-99.99,,2013-04-19 00:32:00,
2013-04-18 14:42:00,73.0,70.0,30.10,North,355,1.0,-999.0,90,-99.99,,,-99.99,,2013-04-19 00:42:00,
2013-04-18 14:51:00,74.0,70.0,30.10,ENE,71,3.0,-999.0,86,-99.99,,,-99.99,,2013-04-19 00:51:00,
2013-04-18 15:01:00,74.0,69.0,30.10,NNE,24,4.0,-999.0,84,-99.99,,,-99.99,,2013-04-19 01:01:00,
2013-04-18 15:11:00,74.0,69.0,30.10,NNE,24,4.0,-999.0,84,-99.99,,,-99.99,,2013-04-19 01:11:00,
2013-04-18 15:21:00,75.0,69.0,30.09,North,350,4.0,-999.0,83,-99.99,,,-99.99,,2013-04-19 01:21:00,
2013-04-18 15:31:00,76.0,70.0,30.09,East,84,3.0,-999.0,82,-99.99,,,-99.99,,2013-04-19 01:31:00,
2013-04-18 15:42:00,76.0,70.0,30.09,East,84,3.0,-999.0,82,-99.99,,,-99.99,,2013-04-19 01:42:00,
2013-04-18 15:52:00,74.0,70.0,30.09,ENE,62,2.0,-999.0,87,-99.99,,,-99.99,,2013-04-19 01:52:00,
2013-04-18 16:01:00,75.0,69.0,30.09,NNE,22,3.0,-999.0,83,-99.99,,,-99.99,,2013-04-19 02:01:00,
2013-04-18 16:11:00,75.0,69.0,30.09,NNE,22,3.0,-999.0,83,-99.99,,,-99.99,,2013-04-19 02:11:00,
2013-04-18 16:21:00,75.0,69.0,30.08,North,9,2.0,-999.0,82,-99.99,,,-99.99,,2013-04-19 02:21:00,
2013-04-18 16:32:00,74.0,68.0,30.09,North,5,3.0,-999.0,83,-99.99,,,-99.99,,2013-04-19 02:32:00,
2013-04-18 16:42:00,74.0,68.0,30.09,North,5,3.0,-999.0,83,-99.99,,,-99.99,,2013-04-19 02:42:00,
2013-04-18 16:51:00,74.0,69.0,30.09,NNE,15,3.0,-999.0,84,-99.99,,,-99.99,,2013-04-19 02:51:00,
2013-04-18 17:01:00,74.0,68.0,30.09,NE,38,2.0,-999.0,81,-99.99,,,-99.99,,2013-04-19 03:01:00,
2013-04-18 17:11:00,74.0,68.0,30.09,NE,38,2.0,-999.0,81,-99.99,,,-99.99,,2013-04-19 03:11:00,
2013-04-18 17:21:00,73.0,68.0,30.09,NNE,32,2.0,-999.0,83,-99.99,,,-99.99,,2013-04-19 03:21:00,
2013-04-18 17:32:00,73.0,68.0,30.09,NNE,20,2.0,-999.0,83,-99.99,,,-99.99,,2013-04-19 03:32:00,
2013-04-18 17:43:00,73.0,68.0,30.09,NNE,20,2.0,-999.0,83,-99.99,,,-99.99,,2013-04-19 03:43:00,
2013-04-18 17:53:00,73.0,68.0,30.09,ENE,62,2.0,-999.0,83,-99.99,,,-99.99,,2013-04-19 03:53:00,
2013-04-18 18:03:00,73.0,68.0,30.10,NE,38,2.0,-999.0,83,-99.99,,,-99.99,,2013-04-19 04:03:00,
2013-04-18 18:12:00,73.0,68.0,30.10,NE,38,2.0,-999.0,83,-99.99,,,-99.99,,2013-04-19 04:12:00,
2013-04-18 18:23:00,73.0,68.0,30.10,East,82,0.0,-999.0,84,-99.99,,,-99.99,,2013-04-19 04:23:00,
2013-04-18 18:32:00,72.0,67.0,30.11,North,9,1.0,-999.0,84,-99.99,,,-99.99,,2013-04-19 04:32:00,
2013-04-18 18:43:00,72.0,68.0,30.11,NNE,20,0.0,-999.0,86,-99.99,,,-99.99,,2013-04-19 04:43:00,
2013-04-18 18:52:00,72.0,68.0,30.11,NNE,20,0.0,-999.0,86,-99.99,,,-99.99,,2013-04-19 04:52:00,
2013-04-18 19:02:00,71.0,67.0,30.11,NNE,13,0.0,-999.0,87,-99.99,,,-99.99,,2013-04-19 05:02:00,
2013-04-18 19:11:00,71.0,67.0,30.11,NNE,13,0.0,-999.0,87,-99.99,,,-99.99,,2013-04-19 05:11:00,
2013-04-18 19:22:00,71.0,67.0,30.12,NNE,13,0.0,-999.0,88,-99.99,,,-99.99,,2013-04-19 05:22:00,
2013-04-18 19:32:00,71.0,68.0,30.12,NNE,13,0.0,-999.0,90,-99.99,,,-99.99,,2013-04-19 05:32:00,
2013-04-18 19:42:00,71.0,68.0,30.12,NNE,13,0.0,-999.0,90,-99.99,,,-99.99,,2013-04-19 05:42:00,
2013-04-18 19:51:00,70.0,68.0,30.13,NNE,15,0.0,-999.0,92,-99.99,,,-99.99,,2013-04-19 05:51:00,
2013-04-18 20:01:00,69.0,67.0,30.14,NNE,15,0.0,-999.0,94,-99.99,,,-99.99,,2013-04-19 06:01:00,
2013-04-18 20:11:00,69.0,67.0,30.14,NNE,15,0.0,-999.0,94,-99.99,,,-99.99,,2013-04-19 06:11:00,
2013-04-18 20:22:00,69.0,68.0,30.14,NNE,15,0.0,-999.0,95,-99.99,,,-99.99,,2013-04-19 06:22:00,
2013-04-18 20:31:00,69.0,68.0,30.15,NNE,15,0.0,-999.0,95,-99.99,,,-99.99,,2013-04-19 06:31:00,
2013-04-18 20:42:00,69.0,68.0,30.15,NNE,15,0.0,-999.0,95,-99.99,,,-99.99,,2013-04-19 06:42:00,
2013-04-18 20:52:00,68.0,67.0,30.15,NNE,15,0.0,-999.0,95,-99.99,,,-99.99,,2013-04-19 06:52:00,
2013-04-18 21:01:00,68.0,67.0,30.16,NNE,15,0.0,-999.0,96,-99.99,,,-99.99,,2013-04-19 07:01:00,
2013-04-18 21:12:00,68.0,67.0,30.16,NNE,15,0.0,-999.0,96,-99.99,,,-99.99,,2013-04-19 07:12:00,
2013-04-18 21:21:00,68.0,67.0,30.16,NNE,15,0.0,-999.0,96,-99.99,,,-99.99,,2013-04-19 07:21:00,
2013-04-18 21:31:00,68.0,67.0,30.16,NNE,15,0.0,-999.0,96,-99.99,,,-99.99,,2013-04-19 07:31:00,
2013-04-18 21:42:00,68.0,67.0,30.16,NNE,15,0.0,-999.0,96,-99.99,,,-99.99,,2013-04-19 07:42:00,
2013-04-18 21:52:00,68.0,67.0,30.16,NNE,15,0.0,-999.0,96,-99.99,,,-99.99,,2013-04-19 07:52:00,
2013-04-18 22:02:00,68.0,67.0,30.16,NNE,15,0.0,-999.0,97,-99.99,,,-99.99,,2013-04-19 08:02:00,
2013-04-18 22:12:00,68.0,67.0,30.16,WSW,254,0.0,-999.0,97,-99.99,,,-99.99,,2013-04-19 08:12:00,
2013-04-18 22:21:00,68.0,67.0,30.16,WSW,254,0.0,-999.0,97,-99.99,,,-99.99,,2013-04-19 08:21:00,
2013-04-18 22:32:00,68.0,67.0,30.17,WSW,254,0.0,-999.0,97,-99.99,,,-99.99,,2013-04-19 08:32:00,
2013-04-18 22:42:00,68.0,67.0,30.17,WSW,254,0.0,-999.0,97,-99.99,,,-99.99,,2013-04-19 08:42:00,
2013-04-18 22:51:00,67.0,66.0,30.16,WSW,254,0.0,-999.0,97,-99.99,,,-99.99,,2013-04-19 08:51:00,
2013-04-18 23:01:00,68.0,67.0,30.16,WSW,254,0.0,-999.0,97,-99.99,,,-99.99,,2013-04-19 09:01:00,
2013-04-18 23:11:00,68.0,67.0,30.16,WSW,254,0.0,-999.0,97,-99.99,,,-99.99,,2013-04-19 09:11:00,
2013-04-18 23:21:00,67.0,66.0,30.16,WSW,254,0.0,-999.0,97,-99.99,,,-99.99,,2013-04-19 09:21:00,
2013-04-18 23:32:00,67.0,66.0,30.16,WSW,254,0.0,-999.0,97,-99.99,,,-99.99,,2013-04-19 09:32:00,
2013-04-18 23:42:00,67.0,66.0,30.16,WSW,254,0.0,-999.0,97,-99.99,,,-99.99,,2013-04-19 09:42:00,
2013-04-18 23:52:00,67.0,66.0,30.15,WSW,254,0.0,-999.0,97,-99.99,,,-99.99,,2013-04-19 09:52:00,